Cosmos 1544 - Orbit

View from above orbital plane
View from above orbital plane
View from above satellite
View from above satellite

Ground track
Ground track

The orbit data is extracted from the following two-line orbital elements,

1 14819U 84027A   13144.48571597  .00005153  00000-0  28776-3 0  6526
2 14819 082.4928 067.3935 0019017 176.3838 235.0055 15.13162249590205
Epoch (UTC): 24 May 2013 11:39:25
Eccentricity: 0.0019017
inclination: 82.4928°
perigee height: 513 km
apogee height: 540 km
right ascension of ascending node: 67.3935°
argument of perigee: 176.3838°
revolutions per day: 15.13162249
mean anomaly at epoch: 235.0055°
orbit number at epoch: 59020

The dashed part of the orbit path shows where the satellite is in the earth's shadow,  

Developed and maintained by Chris Peat, Heavens-Above GmbH. Please read the updated FAQ before sending e-mail. Imprint. DLR